Weather History for St. Kitts, Saint Kitts and Nevis

Change the Weather History Date:

Tuesday, August 26, 2014

  Actual Average Record
Temperature  
Mean Temperature 83 °F -  
Max Temperature 88 °F 85 °F 89 °F (2003)
Min Temperature 78 °F 77 °F 77 °F (1996)
Cooling Degree Days 18    
Growing Degree Days 33 (Base 50)    
Moisture  
Dew Point 77 °F    
Average Humidity 79    
Maximum Humidity 94    
Minimum Humidity 65    
Precipitation  
Precipitation 0.08 in - - ()
Sea Level Pressure  
Sea Level Pressure 30.00 in    
Wind  
Wind Speed 9 mph ()    
Max Wind Speed 18 mph    
Max Gust Speed -    
Visibility 8.7 miles    
Events Rain    
Averages and records for this station are not official NWS values.
T = Trace of Precipitation, MM = Missing Value Source: Averaged Metar Reports

Daily Weather History Graph

Daily Weather History Graph

Search for Another Location

Airport:

Trip Planner

Search our weather history database for the weather conditions in past years. The results will help you decide how hot, cold, wet, or windy it might be!

Date:

Astronomy

Aug. 26, 2014 Rise Set
Actual Time 5:55 AM AST 6:28 PM AST
Civil Twilight 5:33 AM AST 6:50 PM AST
Nautical Twilight 5:07 AM AST 7:16 PM AST
Astronomical Twilight 4:41 AM AST 7:42 PM AST
Moon 6:37 AM AST (8/26) 7:06 PM AST (8/26)
Length of Visible Light 13h 17m
Length of Day
12h 32m
New Moon, 1% of the Moon is Illuminated
Aug 26
New Moon
Sep 2
First Quarter
Sep 8
Full
Sep 15
Last Quarter
Sep 24
New

Hourly Weather History & Observations

Time (AST) Temp. Heat Index Dew Point Humidity Pressure Visibility Wind Dir Wind Speed Gust Speed Precip Events Conditions
6:00 AM 80.6 °F 85.4 °F 73.4 °F 79% 29.98 in 6.2 mi Calm Calm - N/A   Partly Cloudy
7:00 AM 82.4 °F 89.5 °F 75.2 °F 79% 29.98 in 6.2 mi East 6.9 mph - N/A   Partly Cloudy
8:00 AM 83 °F - 76 °F 75% 30.01 in 18 mi ESE 11.5 mph - -   Partly Cloudy
8:00 AM 84.2 °F 94.1 °F 77.0 °F 79% 30.01 in 6.2 mi ESE 11.5 mph - N/A   Partly Cloudy
9:00 AM 86.0 °F 96.9 °F 77.0 °F 74% 30.01 in 6.2 mi East 12.7 mph - N/A   Partly Cloudy
10:00 AM 84.2 °F 94.1 °F 77.0 °F 79% 30.01 in 6.2 mi ESE 12.7 mph - N/A   Mostly Cloudy
11:00 AM 87 °F - 77 °F 65% 30.03 in 19 mi ESE 11.5 mph - -   Scattered Clouds
11:00 AM 87.8 °F 99.7 °F 77.0 °F 70% 30.01 in 6.2 mi ESE 11.5 mph - N/A   Partly Cloudy
12:00 PM 87.8 °F 99.7 °F 77.0 °F 70% 30.01 in 6.2 mi East 15.0 mph - N/A   Partly Cloudy
1:00 PM 87.8 °F 99.7 °F 77.0 °F 70% 30.01 in 6.2 mi ESE 11.5 mph - N/A   Scattered Clouds
2:00 PM 85 °F - 78 °F 73% 29.99 in 16 mi East 8.1 mph - -   Mostly Cloudy
2:00 PM 86.0 °F 96.9 °F 77.0 °F 74% 29.98 in 6.2 mi East 8.1 mph - N/A   Scattered Clouds
3:00 PM 78.8 °F - 77.0 °F 94% 29.98 in 6.2 mi ENE 6.9 mph - N/A Rain Light Rain Showers
4:00 PM 84.2 °F 96.1 °F 78.8 °F 84% 29.98 in 6.2 mi ENE 8.1 mph - N/A   Scattered Clouds
5:00 PM 83 °F - 78 °F 80% 29.98 in 16 mi ENE 17.3 mph - -   Partly Cloudy
5:00 PM 82.4 °F 90.9 °F 77.0 °F 84% 29.98 in 6.2 mi ENE 17.3 mph - N/A   Scattered Clouds
6:00 PM 82.4 °F 90.9 °F 77.0 °F 84% 29.98 in 6.2 mi ENE 18.4 mph - N/A   Partly Cloudy
7:00 PM 82.4 °F 90.9 °F 77.0 °F 84% 30.01 in 6.2 mi East 12.7 mph - N/A   Partly Cloudy
8:00 PM 82 °F - 77 °F 79% 30.03 in 17 mi ENE 16.1 mph - -   Partly Cloudy
8:00 PM 82.4 °F 90.9 °F 77.0 °F 84% 30.01 in 6.2 mi ENE 16.1 mph - N/A   Scattered Clouds
9:00 PM 82.4 °F 90.9 °F 77.0 °F 84% 30.04 in 6.2 mi East 12.7 mph - N/A   Scattered Clouds
10:00 PM 82.4 °F 90.9 °F 77.0 °F 84% 30.04 in 6.2 mi East 17.3 mph - N/A   Scattered Clouds